GW6414 Weather Reports


time (UTC)temp
F
wind
direction
speed
knots
gust
knots
rain 1hr
in
rain 24hr
in
rain mn
in
humidity
%
barometer
mb
20260509112528 70 316 0.0 0.9 0.00 0.03 0.00 84 1009.3
20260509111548 70 319 0.0 0.9 0.00 0.03 0.00 85 1009.0
20260509110528 70 305 0.0 1.7 0.00 0.03 0.00 87 1008.7
20260509105549 70 0.0 0.0 0.00 0.03 0.00 88 1008.4
20260509104529 70 342 0.0 0.9 0.00 0.03 0.00 88 1008.6
20260509103529 70 335 0.0 1.7 0.00 0.03 0.00 90 1008.5
20260509102529 70 0.0 0.0 0.00 0.03 0.00 90 1008.5
20260509101515 70 0.0 0.0 0.00 0.03 0.00 89 1008.4
20260509100515 71 0.0 0.0 0.00 0.03 0.00 89 1008.4
20260509095516 71 70 0.0 0.0 0.00 0.03 0.00 89 1008.1
20260509094516 71 0 0.0 0.9 0.00 0.03 0.00 89 1007.9
20260509093517 71 149 0.9 3.5 0.00 0.04 0.00 89 1007.9
20260509092516 72 178 0.0 1.7 0.00 0.05 0.00 88 1008.0
20260509091536 72 304 0.0 2.6 0.00 0.05 0.00 89 1008.1
20260509090517 71 305 0.9 2.6 0.00 0.05 0.00 89 1007.9
20260509085517 71 137 0.9 4.3 0.00 0.05 0.00 89 1006.7
20260509084520 71 151 1.7 6.1 0.00 0.05 0.00 89 1006.4
20260509083521 71 156 2.6 7.8 0.00 0.05 0.00 89 1006.0
20260509082521 71 153 2.6 5.2 0.00 0.06 0.00 89 1006.6
20260509081638 71 145 1.7 3.5 0.00 0.06 0.00 89 1007.2
20260509080518 71 134 1.7 4.3 0.00 0.06 0.00 88 1007.8
20260509075519 71 105 0.9 2.6 0.00 0.06 0.00 89 1008.4
20260509074518 71 0.0 0.0 0.00 0.06 0.00 88 1009.1
20260509073518 71 131 0.0 1.7 0.00 0.06 0.00 89 1009.2
20260509072518 71 91 0.0 1.7 0.00 0.06 0.00 89 1009.6
20260509071520 71 59 0.0 0.9 0.00 0.06 0.00 89 1009.9
20260509070519 71 73 0.0 0.0 0.00 0.06 0.00 88 1010.1
20260509065519 71 332 0.0 0.9 0.00 0.06 0.00 88 1010.5
20260509064519 70 332 0.0 0.9 0.00 0.06 0.00 89 1010.4
20260509063539 70 0.0 0.0 0.00 0.06 0.00 89 1010.2
20260509062519 69 344 0.0 0.9 0.00 0.06 0.00 89 1010.1
20260509061520 70 0.0 0.0 0.00 0.06 0.00 88 1010.2
20260509060521 70 0.0 0.0 0.00 0.06 0.00 88 1010.3
20260509055520 70 64 0.0 0.0 0.00 0.06 0.00 87 1010.3
20260509054520 71 0.0 0.0 0.00 0.06 0.00 86 1010.8
20260509053520 71 2 0.0 0.9 0.00 0.06 0.00 85 1010.7
20260509052540 72 0.0 0.0 0.00 0.06 0.00 84 1011.1
20260509051521 72 310 0.9 2.6 0.00 0.06 0.00 84 1011.4
20260509050521 72 345 0.9 1.7 0.00 0.06 0.00 84 1010.6
20260509045521 72 0.0 0.0 0.00 0.06 0.06 84 1010.1
20260509044521 72 127 0.0 0.9 0.00 0.06 0.06 83 1010.1
20260509043521 73 143 0.0 0.9 0.00 0.06 0.06 82 1010.1
20260509042522 73 143 0.9 2.6 0.00 0.06 0.06 82 1009.9
20260509041522 73 161 0.9 2.6 0.00 0.06 0.06 81 1009.8
20260509040543 73 150 1.7 2.6 0.00 0.06 0.06 81 1009.7
20260509035523 73 154 1.7 3.5 0.00 0.06 0.06 80 1009.5
20260509034522 73 159 0.0 2.6 0.00 0.06 0.06 80 1010.3
20260509033522 73 0.0 0.0 0.00 0.06 0.06 80 1010.4
20260509032537 0 0.0 0.0 0.00 0.06 0.06
20260509031517 73 71 0.0 1.7 0.00 0.06 0.06 80 1009.9
20260509030517 73 85 0.0 1.7 0.00 0.06 0.06 80 1009.6
20260509025518 73 152 0.9 3.5 0.00 0.06 0.06 80 1009.2
20260509024518 73 145 0.9 5.2 0.00 0.06 0.06 79 1008.9
20260509023518 73 152 0.9 2.6 0.00 0.06 0.06 79 1008.7
20260509022518 73 159 1.7 4.3 0.00 0.06 0.06 79 1008.5
20260509021515 73 152 1.7 4.3 0.00 0.06 0.06 79 1008.4
20260509020516 73 159 1.7 5.2 0.00 0.06 0.06 78 1008.5
20260509015516 74 155 1.7 5.2 0.00 0.06 0.06 77 1008.2
20260509014518 74 143 0.9 3.5 0.00 0.06 0.06 77 1008.4
20260509013536 74 144 0.9 2.6 0.00 0.06 0.06 77 1008.6
20260509012516 74 143 0.9 3.5 0.00 0.06 0.06 76 1008.6
20260509011516 74 157 0.9 3.5 0.00 0.06 0.06 76 1008.6
20260509010519 74 148 0.9 2.6 0.00 0.06 0.06 76 1008.3
20260509005517 74 128 0.0 1.7 0.00 0.06 0.06 75 1008.2
20260509004517 74 145 0.9 3.5 0.00 0.06 0.06 75 1007.9
20260509003537 74 137 0.9 2.6 0.00 0.06 0.06 74 1007.9
20260509002518 74 144 0.9 4.3 0.00 0.06 0.06 74 1007.8
20260509001541 75 142 1.7 4.3 0.00 0.06 0.06 74 1007.8
20260509000518 75 156 1.7 5.2 0.00 0.06 0.06 73 1007.9
20260508235518 75 144 1.7 6.1 0.00 0.06 0.06 73 1008.1
20260508234518 75 147 0.9 4.3 0.00 0.06 0.06 72 1008.3
20260508233518 75 150 1.7 5.2 0.00 0.06 0.06 71 1008.3
20260508232519 75 161 2.6 5.2 0.00 0.06 0.06 71 1008.4
20260508231516 76 162 1.7 5.2 0.00 0.06 0.06 70 1008.4
20260508230516 76 150 0.9 3.5 0.00 0.06 0.06 70 1008.4
20260508225516 76 154 2.6 7.0 0.00 0.06 0.06 68 1008.4
20260508224517 76 159 2.6 5.2 0.00 0.06 0.06 67 1008.4
20260508223536 76 148 1.7 4.3 0.00 0.06 0.06 67 1008.4
20260508222516 76 136 0.9 3.5 0.00 0.06 0.06 68 1008.4
20260508221540 76 147 1.7 5.2 0.00 0.06 0.06 67 1008.5
20260508220516 76 145 1.7 5.2 0.00 0.06 0.06 66 1008.4
20260508215517 76 161 3.5 5.2 0.00 0.06 0.06 66 1008.4
20260508214537 76 156 2.6 6.1 0.00 0.06 0.06 66 1008.5
20260508213521 75 154 1.7 4.3 0.00 0.06 0.06 67 1008.6
20260508212537 75 172 0.9 2.6 0.03 0.06 0.06 68 1008.8
20260508211518 76 152 0.9 3.5 0.03 0.06 0.06 67 1008.9
20260508210517 75 161 0.9 3.5 0.03 0.06 0.06 69 1008.8
20260508205518 74 156 1.7 6.1 0.03 0.06 0.06 70 1009.1
20260508204518 73 162 1.7 5.2 0.03 0.06 0.06 74 1009.4
20260508203518 73 146 0.0 2.6 0.03 0.06 0.06 71 1010.1
20260508202518 74 152 0.9 4.3 0.00 0.04 0.04 67 1010.6
20260508201516 75 142 0.9 4.3 0.00 0.04 0.04 65 1010.8
20260508200515 75 73 0.0 1.7 0.00 0.04 0.04 66 1010.6
20260508195556 76 131 0.9 2.6 0.00 0.04 0.04 66 1010.7
20260508194516 76 143 0.9 5.2 0.00 0.04 0.04 66 1010.5
20260508193516 76 151 1.7 6.1 0.00 0.04 0.04 66 1010.6
20260508192516 76 155 2.6 6.1 0.00 0.04 0.04 66 1010.7
20260508191516 76 146 1.7 5.2 0.00 0.04 0.04 66 1010.8
20260508190517 78 148 1.7 5.2 0.00 0.04 0.04 64 1010.8
20260508185516 78 138 0.0 3.5 0.00 0.04 0.04 63 1010.9
20260508184517 78 155 1.7 5.2 0.00 0.04 0.04 63 1010.9
20260508183517 80 133 1.7 4.3 0.00 0.04 0.04 61 1011.0
20260508182517 79 138 0.9 5.2 0.00 0.04 0.04 62 1011.1
20260508181517 78 130 0.9 4.3 0.00 0.04 0.04 61 1011.3
20260508180518 77 135 0.9 2.6 0.00 0.04 0.04 63 1011.6
20260508175518 78 156 2.6 5.2 0.00 0.04 0.04 60 1011.8
20260508174518 78 138 1.7 4.3 0.00 0.04 0.04 61 1011.9
20260508173518 77 134 1.7 4.3 0.00 0.04 0.04 61 1011.9
20260508172519 77 142 1.7 4.3 0.00 0.04 0.04 61 1012.1
20260508171518 75 133 1.7 5.2 0.00 0.04 0.04 62 1012.2
20260508170518 74 152 1.7 4.3 0.00 0.04 0.04 62 1012.4
20260508165516 73 146 1.7 5.2 0.00 0.04 0.04 63 1012.7
20260508164515 72 152 1.7 4.3 0.00 0.04 0.04 64 1013.0
20260508163536 72 156 1.7 3.5 0.00 0.04 0.04 64 1013.1
20260508162516 71 158 1.7 6.1 0.00 0.04 0.04 66 1013.4
20260508161517 71 160 1.7 4.3 0.00 0.04 0.04 66 1013.5
20260508160516 72 144 1.7 4.3 0.00 0.04 0.04 65 1013.6
20260508155517 71 157 1.7 5.2 0.00 0.04 0.04 65 1013.8
20260508154517 70 160 1.7 3.5 0.00 0.04 0.04 67 1013.8
20260508153520 69 125 1.7 4.3 0.00 0.04 0.04 68 1013.9
20260508152540 69 139 0.0 2.6 0.00 0.04 0.04 69 1014.0
20260508151521 68 142 0.9 2.6 0.00 0.04 0.04 68 1014.1
20260508150521 68 150 0.9 2.6 0.00 0.04 0.04 69 1014.1
20260508145521 68 142 0.9 2.6 0.00 0.04 0.04 71 1014.1
20260508144520 67 139 0.9 1.7 0.00 0.04 0.04 70 1014.1
20260508143521 67 143 0.9 2.6 0.00 0.04 0.04 70 1014.3
20260508142541 66 132 1.7 5.2 0.00 0.04 0.04 71 1014.2
20260508141522 66 155 0.9 3.5 0.00 0.04 0.04 73 1014.4
20260508140522 66 146 0.9 1.7 0.00 0.04 0.04 72 1014.4
20260508135516 66 158 2.6 5.2 0.00 0.04 0.04 72 1014.3
20260508134542 66 170 1.7 3.5 0.00 0.04 0.04 74 1014.3
20260508133522 66 138 0.9 2.6 0.00 0.04 0.04 76 1014.2
20260508132522 65 155 1.7 3.5 0.00 0.04 0.04 77 1014.2
20260508131522 64 168 1.7 3.5 0.00 0.04 0.04 79 1014.3
20260508130602 63 71 0.0 0.9 0.00 0.04 0.04 83 1014.4
20260508125523 63 144 0.0 1.7 0.00 0.04 0.04 84 1014.5
20260508124523 63 163 0.0 2.6 0.00 0.04 0.04 86 1014.3
20260508123523 63 0.0 0.0 0.00 0.04 0.04 85 1014.6
20260508122523 63 150 0.9 2.6 0.00 0.04 0.04 84 1014.4
20260508121523 63 241 0.0 0.9 0.00 0.04 0.04 84 1014.9
20260508120523 63 147 0.9 1.7 0.00 0.04 0.04 85 1014.4
20260508115544 62 132 0.0 1.7 0.00 0.04 0.04 87 1014.6
20260508114524 62 142 0.0 1.7 0.00 0.04 0.04 89 1014.7
20260508113544 62 30 0.0 0.9 0.00 0.04 0.04 89 1014.6